Weather Roundup
Issued by NWS Chicago, IL

Home | Current Version | Previous Version | Graphics & Text | Print | Product List | Glossary On
Versions: 1 2 3 4 5 6 7 8 9 10 11 12 13 14 15 16 17 18 19 20 21 22 23 24 25 26 27 28 29 30 31 32 33 34 35 36 37 38 39 40 41 42 43 44 45 46 47 48 49 50
000
NZUS59 KLOT 221804
HRRLOT

CHICAGO AREA WEATHER ROUNDUP
NATIONAL WEATHER SERVICE CHICAGO/ROMEOVILLE IL
100 PM CDT THU JUN 22 2017

NOTE: "FAIR" INDICATES FEW OR NO CLOUDS BELOW 12,000 FEET WITH NO
SIGNIFICANT WEATHER AND/OR OBSTRUCTIONS TO VISIBILITY.

* THESE STATIONS ARE NOT UNDER NWS QUALITY CONTROL. THEY ALSO MAY NOT
  REPORT WEATHER SUCH AS PRECIPITATION OR FOG.

ILZ005-006-012>014-019>023-221900-
NORTHEAST ILLINOIS

CITY           SKY/WX    TMP DP  RH WIND       PRES   REMARKS
OHARE          PTSUNNY   87  66  49 S20G25    29.80F HX  89
6HR MIN TEMP:  77; 6HR MAX TEMP:  88;

MIDWAY         CLOUDY    85  70  60 SW15      29.82S HX  89
6HR MIN TEMP:  77; 6HR MAX TEMP:  87;

AURORA         CLOUDY    83  70  64 S12G24    29.82F HX  87
6HR MIN TEMP:  74; 6HR MAX TEMP:  85;

LANSING*       CLOUDY    84  69  59 S15G23    29.83F HX  88
JOLIET*        CLOUDY    86  73  65 S13       29.83F HX  92
WAUKEGAN       CLOUDY    84  67  56 SW16G25   29.79F HX  86
6HR MIN TEMP:  77; 6HR MAX TEMP:  84;

DUPAGE AIRPORT MOSUNNY   85  70  60 SW18      29.81F HX  89
6HR MIN TEMP:  75; 6HR MAX TEMP:  85;

WHEELING       MOSUNNY   85  68  56 SW15G24   29.81F HX  88
6HR MIN TEMP:  75; 6HR MAX TEMP:  86; 6HR PCP: TRACE;

MORRIS*        CLOUDY    85  70  60 S13       29.81F HX  90
LEWIS AIRPORT* CLOUDY    84  68  57 SW12      29.83F HX  87
NORTHERLY ISL    N/A     84  64  50 S12         N/A  HX  85
$$

WIZ051-052-058>065-066-070>072-221900-
SOUTHEAST WISCONSIN

CITY           SKY/WX    TMP DP  RH WIND       PRES   REMARKS
MILWAUKEE      PTSUNNY   85  67  54 SW23G29   29.76F HX  87
6HR MIN TEMP:  74; 6HR MAX TEMP:  85; 6HR PCP: TRACE;

KENOSHA*       MOSUNNY   82  69  64 SW13      29.79F HX  85
RACINE*        CLOUDY    82  66  58 SW16G29   29.79F HX  84
WAUKESHA       MOSUNNY   79  64  61 SW10G21   29.78F HX  81
$$

INZ001>003-010>013-019-020-221900-
NORTHWEST INDIANA

CITY           SKY/WX    TMP DP  RH WIND       PRES   REMARKS
GARY*          PTSUNNY   84  66  54 SW12      29.83F HX  86
MICHIGAN CITY* NOT AVBL
RENSSELAER*    NOT AVBL
VALPARAISO     CLOUDY    86  70  58 S20G26    29.85F HX  90
$$

LMZ740>746-221900-
SOUTHERN LAKE MICHIGAN

STATION/POSITION TIME  SKY/WX   TEMP WIND        PRES    VSBY
                                AIR  DIR/SP/G
                 (UTC)          (F)  (DEG/KT/KT) (MB)    (MI)
HARRISON CRIB    1740            81  210/ 22/ 24   N/A
BURNHAM HARBOR   1800            84                N/A
CALUMET HARBOR   1730            82  190/ 14/ 18 1009.5F
BURNS HARBOR     1740            81  200/ 16/ 26 1010.5F
MICHIGAN CITY    1740            81  190/ 19/ 23   N/A
$$

ABBREVIATIONS USED IN REMARKS
   TC - TEMPERATURE IN CELSIUS
  WCI - WIND CHILL INDEX
   HX - HEAT INDEX
  VSB - VISIBILITY
$$



USA.gov is the U.S. government's official web portal to all federal, state and local government web resources and services.